This is the latest recevied weather packets stored in our database for station/object KA0EGE. If no packets are shown the sender has not sent any weather packets the latest 10 day(s).
| Time | Temp. | Humidity | Pressure | Rain* | Wind** | Luminosity | Snow |
|---|---|---|---|---|---|---|---|
| 1777582252 | 25.56° C | 71% | 1013.9 hPa | 0 mm | - | 65 W/m² | - |
| 1777581949 | 25.56° C | 70% | 1013.7 hPa | 0 mm | - | 116 W/m² | - |
| 1777581644 | 25.56° C | 71% | 1013.9 hPa | 0 mm | - | 192 W/m² | - |
| 1777581339 | 25.56° C | 70% | 1013.8 hPa | 0 mm | - | 188 W/m² | - |
| 1777581034 | 26.11° C | 69% | 1013.7 hPa | 0 mm | - | 219 W/m² | - |
| 1777580733 | 26.11° C | 70% | 1013.8 hPa | 0 mm | - | 249 W/m² | - |
| 1777580430 | 26.11° C | 69% | 1013.9 hPa | 0 mm | - | 265 W/m² | - |
| 1777580125 | 26.11° C | 68% | 1014 hPa | 0 mm | - | 274 W/m² | - |
| 1777579822 | 26.67° C | 69% | 1014 hPa | 0 mm | - | 323 W/m² | - |
| 1777579521 | 26.11° C | 68% | 1014.1 hPa | 0 mm | - | 435 W/m² | - |
| 1777579215 | 26.11° C | 69% | 1014.2 hPa | 0 mm | - | 353 W/m² | - |
| 1777578911 | 26.11° C | 69% | 1014.2 hPa | 0 mm | - | 337 W/m² | - |
| 1777578606 | 26.67° C | 67% | 1014.1 hPa | 0 mm | - | 503 W/m² | - |
| 1777578301 | 26.11° C | 68% | 1014.1 hPa | 0 mm | - | 736 W/m² | - |
| 1777577996 | 26.67° C | 68% | 1014.3 hPa | 0 mm | - | 439 W/m² | - |
| 1777577691 | 26.11° C | 70% | 1014 hPa | 0 mm | - | 780 W/m² | - |
| 1777577389 | 25.56° C | 70% | 1014.1 hPa | 0 mm | - | 797 W/m² | - |
| 1777577085 | 25.56° C | 71% | 1014.5 hPa | 0 mm | - | 838 W/m² | - |
| 1777576782 | 25° C | 72% | 1014.4 hPa | 0 mm | - | 444 W/m² | - |
| 1777576481 | 24.44° C | 77% | 1014.2 hPa | 0 mm | - | 313 W/m² | - |
| 1777576178 | 23.89° C | 77% | 1014.3 hPa | 0 mm | - | 237 W/m² | - |
| 1777575873 | 23.89° C | 79% | 1014.4 hPa | 0 mm | - | 171 W/m² | - |
| 1777575570 | 24.44° C | 77% | 1014.2 hPa | 0 mm | - | 158 W/m² | - |
| 1777575266 | 24.44° C | 75% | 1014.2 hPa | 0 mm | - | 157 W/m² | - |
| 1777574962 | 24.44° C | 75% | 1014.6 hPa | 0 mm | - | 133 W/m² | - |
* Rain latest hour (hover to see other rain measurements)
** Current wind speed in m/s (hover to see current wind gust speed)